User: anonymous   Login
Location: Columbia
(38.9520°N, 92.3340°W)
Time: 05:48:09
(UTC-05:00)
Language:

CZ-4B R/B - Orbit

View from above orbital plane
View from above orbital plane
View from above satellite
View from above satellite

Ground track
Ground track

The orbit data is extracted from the following two-line orbital elements,

1 29093U 06015B   18114.91023726 +.00002362 +00000-0 +54392-4 0  9990
2 29093 097.5202 239.3289 0058780 275.4220 084.0323 15.41958054665432
Epoch (UTC): 24 April 2018 21:50:44
Eccentricity: 0.0058780
inclination: 97.5202°
perigee height: 400 km
apogee height: 480 km
right ascension of ascending node: 239.3289°
argument of perigee: 275.4220°
revolutions per day: 15.41958054
mean anomaly at epoch: 84.0323°
orbit number at epoch: 66543

The dashed part of the orbit path shows where the satellite is in the earth's shadow,  

DLR